Regional Weather Roundup
Issued by NWS

Home | Current Version | Previous Version | Graphics & Text | Print | Product List | Glossary On
Versions: 1 2 3 4 5 6 7 8 9 10 11 12 13 14 15 16 17 18 19 20 21 22 23 24 25 26 27 28 29 30 31 32 33 34 35 36 37 38 39 40 41 42 43 44 45 46 47 48 49 50
000
ASUS43 KBIS 291310
RWRND

NORTH DAKOTA REGIONAL WEATHER ROUNDUP
NATIONAL WEATHER SERVICE BISMARCK ND
800 AM CDT MON MAY 29 2017

NOTE: "FAIR" INDICATES FEW OR NO CLOUDS BELOW 12,000 FEET WITH NO
SIGNIFICANT WEATHER AND/OR OBSTRUCTIONS TO VISIBILITY.


NDZ001>003-009>011-017-291400-
NORTHWEST NORTH DAKOTA

CITY           SKY/WX    TMP DP  RH WIND       PRES   REMARKS
WILLISTON      CLOUDY    50  40  68 NW15      30.13R
MINOT          FAIR      53  45  74 NW21G29   30.01R
MINOT AFB      MOSUNNY   52  44  74 NW21G28   30.00R
$$

NDZ018>021-031>035-040>046-291400-
SOUTHWEST NORTH DAKOTA

CITY           SKY/WX    TMP DP  RH WIND       PRES   REMARKS
BISMARCK       PTSUNNY   54  43  66 NW14      30.03R
DICKINSON      FAIR      46  39  76 W13       30.10R
GARRISON         N/A     50  43  77 NW24G30   30.03R
HETTINGER ARPT SUNNY     49  40  71 NW14      30.13R
$$

NDZ004>008-012>016-024-026-027-054-291400-
NORTHEAST NORTH DAKOTA

CITY           SKY/WX    TMP DP  RH WIND       PRES   REMARKS
GRAND FORKS    LGT RAIN  50  48  93 N17G24    29.85R FOG
GRND FRKS AFB  LGT RAIN  50  50 100 N15       29.86S
DEVILS LAKE    LGT RAIN  49  46  90 NW18      29.92R
$$

NDZ022-023-025-028>030-036>039-047>053-291400-
SOUTHEAST NORTH DAKOTA

CITY           SKY/WX    TMP DP  RH WIND       PRES   REMARKS
FARGO          LGT RAIN  52  49  89 NW20G25   29.85R
JAMESTOWN      CLOUDY    51  47  86 NW18G26   29.91S
$$





USA.gov is the U.S. government's official web portal to all federal, state and local government web resources and services.